User: anonymous   Login
Location: Unspecified
(0.0000°N, 0.0000°E)
Time: 11:53:24
(UTC+00:00)
Language:

SBIRS GEO 3 (USA 273) - Orbit

View from above orbital plane
View from above orbital plane
View from above satellite
View from above satellite

Ground track
Ground track

The orbit data is extracted from the following two-line orbital elements,

1 41937U 17004A   17093.78619213 0.00000000  00000-0  00000-0 0    06
2 41937   5.8750 316.3370 0027850 352.5490   6.7136  1.00270000    07
Epoch (UTC): 03 April 2017 18:52:07
Eccentricity: 0.0027850
inclination: 5.8750°
perigee height: 35669 km
apogee height: 35904 km
right ascension of ascending node: 316.3370°
argument of perigee: 352.5490°
revolutions per day: 1.00270000
mean anomaly at epoch: 6.7136°
orbit number at epoch: 0

The dashed part of the orbit path shows where the satellite is in the earth's shadow,  

DLR